Weather Service Report


465 
ASUS45 KABQ 232010
RWRNM 
WEATHER ROUNDUP FOR NEW MEXICO
NATIONAL WEATHER SERVICE ALBUQUERQUE NM
200 PM MDT WED JUL 23 2014

NOTE: "FAIR" MEANS FEW OR NO CLOUDS BELOW 12,000 FEET AGL WITH NO
       SIGNIFICANT WEATHER OR OBSTRUCTIONS TO VISION.

      THIS PRODUCT IS RELEASED AS TWO VERSIONS.  ONE VERSION NEAR
      THE TOP OF THE HOUR CONTAINING PRELIMINARY DATA FROM ALBUQUERQUE
      AND OTHER STATIONS.  A FINAL VERSION WITH ADDITIONAL DATA IS 
      ISSUED ABOUT 10 MINUTES AFTER THE HOUR.
 
NMZ501-503-504-510>518-232100-
NORTHWEST PLATEAU/NORTHCENTRAL MOUNTAINS
  
CITY           SKY/WX    TMP DP  RH WIND       PRES   REMARKS
FARMINGTON     SUNNY     94  39  14 SE12      30.28F                  
LOS ALAMOS     PTSUNNY   71  48  44 SE8       30.52S                  
SANTA FE       CLOUDY    72  57  59 N14       30.43S                  
TAOS           PTSUNNY   84  46  26 W8        30.45F                  
ANGEL FIRE     FAIR      78  45  30 E12       30.59F                  

$$
NMZ402-403-502-505>509-232100-
WESTCENTRAL MOUNTAINS/SOUTHWEST MOUNTAINS
  
CITY           SKY/WX    TMP DP  RH WIND       PRES   REMARKS
GALLUP         PTSUNNY   81  53  37 NE17G26   30.37F                  
GRANTS         MOSUNNY   87  47  25 SE15G21   30.42F                  
SILVER CITY    PTSUNNY   82  54  36 SE21G26   30.33F                  

$$
NMZ407-409-411-412-232100-
SOUTHERN DESERTS
  
CITY           SKY/WX    TMP DP  RH WIND       PRES   REMARKS
LORDSBURG      FAIR      91  54  27 SE15G23   30.21F                  
DEMING         PTSUNNY   90  55  30 SE16G25   30.22F                  
LAS CRUCES     SUNNY     94  47  20 E14G22    30.26F                  
HOLLOMAN AFB   MOSUNNY   95  48  20 VRB7      30.21F                  
ALAMOGORDO     PTSUNNY   93  46  20 E14       30.23F                  
T OR C         PTSUNNY   89  53  29 S7        30.26F                  

$$
NMZ519>523-232100-
CENTRAL VALLEYS/CENTRAL HIGHLANDS
  
CITY           SKY/WX    TMP DP  RH WIND       PRES   REMARKS
ALBUQUERQUE    PTSUNNY   84  54  35 S6        30.34F                  
DOUBLE EAGLE   MOSUNNY   84  54  34 E17       30.39F                  
MORIARTY ARPT  MOCLDY    84  52  33 SE10G18   30.43F                  
CLINES CORNERS PTSUNNY   81  48  31 SE15G21   30.48F                  
BELEN          FAIR      84  55  37 E26G33    30.33S THUNDER          
SOCORRO        FAIR      92  51  24 N12       30.28F                  

$$
NMZ524>526-539-540-232100-
SOUTHCENTRAL MOUNTAINS
  
CITY           SKY/WX    TMP DP  RH WIND       PRES   REMARKS
RUIDOSO        MOSUNNY   77  46  33 MISG      30.50S                  

$$
NMZ527>531-232100-
NORTHEAST HIGHLANDS/NORTHEAST PLAINS
  
CITY           SKY/WX    TMP DP  RH WIND       PRES   REMARKS
LAS VEGAS      PTSUNNY   78  53  41 SE10      30.48F                  
RATON          SUNNY     88  46  23 S14       30.41F                  
CLAYTON        MOSUNNY   92  53  26 S12G21    30.33F                  

$$
NMZ532>537-232100-
EASTCENTRAL PLAINS
  
CITY           SKY/WX    TMP DP  RH WIND       PRES   REMARKS
TUCUMCARI      SUNNY     93  58  30 CALM      30.26F                  
CANNON AFB     SUNNY     89  57  33 VRB5      30.31F                  
CLOVIS AIRPORT NOT AVBL                                               

$$
NMZ028-029-538-232100-
SOUTHEAST PLAINS
  
CITY           SKY/WX    TMP DP  RH WIND       PRES   REMARKS
ROSWELL        SUNNY     94  57  28 CALM      30.23F                  
ARTESIA        MOSUNNY   93  54  26 E9        30.23F                  
CARLSBAD       MOSUNNY   98  46  17 SE14G24   30.19F                  
HOBBS          MOSUNNY   93  50  22 SE9G18    30.25F                  


$$

Return to Home page


Western Regional Climate Center, wrcc@dri.edu